Regional Weather Roundup
Issued by NWS

Home | Current Version | Previous Version | Graphics & Text | Print | Product List | Glossary On
Versions: 1 2 3 4 5 6 7 8 9 10 11 12 13 14 15 16 17 18 19 20 21 22 23 24 25 26 27 28 29 30 31 32 33 34 35 36 37 38 39 40 41 42 43 44 45 46 47 48 49 50
000
ASUS45 KBOI 011610
RWRID
WEATHER ROUNDUP FOR IDAHO
NATIONAL WEATHER SERVICE BOISE ID
1000 AM MDT MON SEP 01 2014

NOTE: "FAIR" INDICATES FEW OR NO CLOUDS BELOW 12000 FEET
WITH NO SIGNIFICANT WEATHER AND/OR OBSTRUCTIONS TO VISIBILITY

IDZ012-014-011700-
SOUTHWEST IDAHO


CITY           SKY/WX    TMP DP  RH WIND       PRES   REMARKS
BOISE          SUNNY     59  43  55 NW7       30.11R
CALDWELL       SUNNY     61  39  44 NW9       30.13R
MOUNTAIN HOME  SUNNY     63  42  47 NW15      30.10R
$$

IDZ016-017-011700-
SOUTHCENTRAL IDAHO


CITY           SKY/WX    TMP DP  RH WIND       PRES   REMARKS
BURLEY         SUNNY     61  43  51 W10G17    30.10R
JEROME         SUNNY     57  43  59 SW12      30.12R
TWIN FALLS     SUNNY     63  41  44 SW12      30.12R
$$

IDZ019>023-011700-
SOUTHEAST IDAHO


CITY           SKY/WX    TMP DP  RH WIND       PRES   REMARKS
IDAHO FALLS    SUNNY     57  41  55 SW9       30.11R
POCATELLO      SUNNY     61  40  45 SW15      30.12R
REXBURG        SUNNY     53  42  66 SW9       30.10R
$$

IDZ006-010-011-018-031-032-011700-
CENTRAL IDAHO MOUNTAINS


CITY           SKY/WX    TMP DP  RH WIND       PRES   REMARKS
MCCALL         SUNNY     49  39  68 S5        30.11F
HAILEY         SUNNY     55  34  44 W8        30.13S
STANLEY          N/A     44  33  65 CALM      30.18S
SALMON         PTSUNNY   57  39  51 NW3       30.09S
CHALLIS        SUNNY     54  35  48 CALM      30.12S
$$

IDZ002-004-006-007-026-011700-
NORTHERN IDAHO


CITY           SKY/WX    TMP DP  RH WIND       PRES   REMARKS
LEWISTON       SUNNY     65  45  48 CALM      30.06S
LOWELL           N/A     55  47  74 N3        30.10F
COEUR D`ALENE  SUNNY     57  41  54 S12G17    30.06R
MULLAN PASS    PTSUNNY   45  38  76 W5        30.10S
$$


USA.gov is the U.S. government's official web portal to all federal, state and local government web resources and services.